Flag for Germany Weather past 2 weeks in Delbrück, North Rhine-Westphalia, Germany

Now
48 °F

Sunny.


Feels Like: 47 °F
Forecast: 32 / 58 °F
Wind: 3 mph from North

Location: Paderborn / Lippstadt

Current Time: Apr 18, 2015 at 1:40:17 PM

Latest Report: Apr 18, 2015 at 1:20 PM


Visibility: 10 mi

Pressure: 30.33 "Hg

Humidity: 40%

Dew point: 25 °F

Location of DelbrückLocation

Historic Weather in Delbrück — Graph

°F

Delbrück temperature yesterday

Maximum temperature yesterday: 50 °F (at 4:20 PM)
Minimum temperature yesterday: 39 °F (at 4:50 AM)
Average temperature yesterday: 44 °F

Past Weeks' High & Low Weather Summary

 TemperatureHumidityPressure
High70 °F (Apr 15, 2:20 PM)93% (Apr 4, 12:50 AM)30.60 "Hg (Apr 4, 12:50 AM)
Low27 °F (Apr 5, 5:50 AM)28% (Apr 10, 6:20 PM)29.92 "Hg (Apr 15, 8:20 PM)
Average46 °F63%30.23 "Hg
* Reported Apr 3 12:20 PM — Apr 18 12:20 PM, Delbrück, Weather by CustomWeather, © 2015

Note: Actual official high and low records may vary slightly from our data, if they occured in-between our weather recording intervals... More about our weather records

Advertising

Delbrück weather history for previous 24 hours

 ConditionsComfort  
Time TempWeatherWind HumidityBarometerVisibility
12:20 PM
Sat, Apr 18
48 °FScattered clouds.6 mph50%30.33 "HgN/A
11:50 AM45 °FScattered clouds.7 mph57%30.33 "HgN/A
11:20 AM45 °FScattered clouds.6 mph61%30.33 "HgN/A
10:50 AM45 °FScattered clouds.5 mph61%30.33 "HgN/A
10:20 AM43 °FScattered clouds.5 mph66%30.33 "HgN/A
9:50 AM43 °FPassing clouds.2 mph66%30.33 "HgN/A
9:20 AM41 °FPassing clouds.3 mph76%30.30 "HgN/A
8:50 AM39 °FSunny.2 mph75%30.30 "Hg10 mi
8:20 AM36 °FSunny.2 mph81%30.30 "Hg10 mi
7:50 AM34 °FSunny.2 mph87%30.30 "Hg10 mi
7:20 AM32 °FClear.3 mph87%30.30 "Hg10 mi
6:50 AM32 °FClear.3 mph87%30.27 "Hg10 mi
6:20 AM32 °FClear.3 mph87%30.27 "Hg10 mi
5:50 AM34 °FClear.5 mph81%30.24 "Hg10 mi
5:20 AM34 °FPassing clouds.5 mph87%30.24 "HgN/A
4:50 AM34 °FClear.3 mph81%30.24 "Hg10 mi
4:20 AM36 °FClear.3 mph75%30.24 "Hg10 mi
3:50 AM36 °FClear.2 mph81%30.24 "Hg10 mi
3:20 AM36 °FClear.2 mph75%30.24 "Hg10 mi
2:50 AM36 °FClear.3 mph75%30.24 "Hg10 mi
2:20 AM37 °FClear.2 mph70%30.21 "Hg10 mi
1:50 AM37 °FPassing clouds.3 mph70%30.21 "HgN/A
1:20 AM37 °FClear.2 mph70%30.21 "Hg10 mi
12:50 AM37 °FClear.2 mph70%30.21 "Hg10 mi
12:20 AM39 °FClear.1 mph65%30.18 "Hg10 mi
11:50 PM
Fri, Apr 17
41 °FPassing clouds.2 mph66%30.18 "HgN/A
11:20 PM41 °FClear.2 mph66%30.18 "Hg10 mi
10:50 PM41 °FClear.2 mph61%30.15 "Hg10 mi
10:20 PM41 °FClear.2 mph61%30.15 "Hg10 mi
9:50 PM41 °FClear.2 mph61%30.15 "Hg10 mi
9:20 PM43 °FSunny.2 mph53%30.12 "Hg10 mi
8:50 PM43 °FSunny.2 mph53%30.12 "Hg10 mi
8:20 PM46 °FPassing clouds.3 mph43%30.09 "HgN/A
7:50 PM46 °FPassing clouds.6 mph46%30.09 "HgN/A
7:20 PM48 °FPassing clouds.8 mph43%30.07 "HgN/A
6:50 PM48 °FPassing clouds.8 mph43%30.07 "HgN/A
6:20 PM50 °FPassing clouds.9 mph43%30.07 "HgN/A
5:50 PM50 °FPassing clouds.10 mph43%30.07 "HgN/A
5:20 PM48 °FPassing clouds.6 mph43%30.07 "HgN/A
4:50 PM48 °FPassing clouds.7 mph43%30.07 "HgN/A
4:20 PM50 °FScattered clouds.9 mph40%30.07 "HgN/A
3:50 PM48 °FScattered clouds.8 mph46%30.07 "HgN/A
3:20 PM48 °FScattered clouds.8 mph46%30.07 "HgN/A
2:50 PM48 °FScattered clouds.8 mph50%30.04 "HgN/A
2:20 PM48 °FScattered clouds.9 mph50%30.04 "HgN/A
1:50 PM48 °FScattered clouds.6 mph54%30.07 "HgN/A
1:20 PM46 °FScattered clouds.9 mph57%30.07 "HgN/A
Weather by CustomWeather, © 2015

See weather overviewHow to use our weather pages